Celebrity Century — 9HJI9 — position and weather

sailwx.info

Track history (hours):
 
Tides and Currents Weather Stations Pressure Air Temp Water Temp Dewpoint Dewpoint Depression Visibility Wind Speed Wind Dir Waves Ship Positions

Celebrity Century

Last reported at 2014-Oct-30 15:33 UTC. Time now 2014-Oct-30 15:52 UTC.
Position S 32°33' E 153°07'.

Length 252 m; draft 8 m.

Type: Ship. MMSI: 249054000.

Date/timePositionNaut miles runAvg speedWind from/ knotsBaromVisibWave heightAir tempDewpointWater temp
2014-Oct-30 15:33S 32°33' E 153°07'1817.6
2014-Oct-30 14:33S 32°44' E 152°51'1817.6
2014-Oct-30 13:33S 32°56' E 152°35'1717.3
2014-Oct-30 12:33S 33°07' E 152°20'1716.6
2014-Oct-30 11:33S 33°18' E 152°05'1616.2
2014-Oct-30 10:33S 33°29' E 151°50'1615.9
2014-Oct-30 09:33S 33°39' E 151°36'1616.2
2014-Oct-30 08:34S 33°50' E 151°21'7 6.9
2014-Oct-30 07:32S 33°52' E 151°13'194 7.4
2014-Oct-29 05:23S 37°02' E 150°29'1518.2
2014-Oct-29 04:33S 37°17' E 150°23'1817.9
2014-Oct-29 03:32S 37°35' E 150°16'1717.6
2014-Oct-29 02:33S 37°48' E 150°03'1918.4
2014-Oct-29 01:32S 37°59' E 149°43'3517.7
2014-Oct-28 23:33S 38°20' E 149°08'1818.5
2014-Oct-28 22:33S 38°30' E 148°49'7919.7
2014-Oct-28 18:33S 39°03' E 147°16'2019.6
2014-Oct-28 17:33S 39°10' E 146°53'1919.2
2014-Oct-28 16:34S 39°16' E 146°30'1919.0
2014-Oct-28 15:34S 39°17' E 146°05'1919.0
2014-Oct-28 14:33S 39°15' E 145°41'14818.4
2014-Oct-28 06:33S 38°54' E 142°32'1818.5
2014-Oct-28 05:33S 38°48' E 142°10'1818.6
2014-Oct-28 04:33S 38°43' E 141°47'280 6.8
2014-Oct-26 11:34S 35°20' E 137°46'1414.5
2014-Oct-26 10:34S 35°12' E 138°01'1414.3
2014-Oct-26 09:34S 35°00' E 138°10'1614.6
2014-Oct-26 08:27S 34°48' E 138°22'6 4.3
2014-Oct-26 07:10S 34°47' E 138°29'0 0.0
2014-Oct-26 06:31S 34°47' E 138°29'0 0.0
2014-Oct-26 05:34S 34°47' E 138°29'0 0.0
2014-Oct-26 03:10S 34°47' E 138°29'0 0.0
2014-Oct-26 02:31S 34°47' E 138°29'0 0.0
2014-Oct-26 00:34S 34°47' E 138°29'0 0.0
2014-Oct-25 23:31S 34°47' E 138°29'0 0.0
2014-Oct-25 22:16S 34°47' E 138°29'0 0.0
2014-Oct-25 21:31S 34°47' E 138°29'31 7.8
2014-Oct-25 17:33S 35°13' E 138°08'7211.9
2014-Oct-25 11:32S 36°19' E 138°42'20613.7
2014-Oct-24 20:31S 38°37' E 141°54'1414.8
2014-Oct-24 19:33S 38°42' E 142°12'1514.8
2014-Oct-24 18:32S 38°46' E 142°30'1814.6
2014-Oct-24 17:19S 38°50' E 142°52'134 4.6
2014-Oct-23 12:20S 39°04' E 145°44'1215.2
2014-Oct-23 11:33S 39°09' E 145°57'1515.0
2014-Oct-23 10:32S 39°11' E 146°17'1717.5
2014-Oct-23 09:33S 39°07' E 146°38'1717.3
2014-Oct-23 08:33S 39°01' E 146°59'1717.0
2014-Oct-23 07:33S 38°56' E 147°20'8716.7
2014-Oct-23 02:21S 38°18' E 149°00'3117.0
2014-Oct-23 00:30S 38°02' E 149°34'1717.3
2014-Oct-22 23:31S 37°52' E 149°52'1717.2
2014-Oct-22 22:33S 37°44' E 150°11'1615.6
2014-Oct-22 21:33S 37°30' E 150°20'1717.1
2014-Oct-22 20:33S 37°14' E 150°26'206 9.7
2014-Oct-21 23:14S 33°52' E 151°13'0 0.0
2014-Oct-21 22:32S 33°52' E 151°13'64 6.9
2014-Oct-21 13:18S 33°11' E 152°12'1215.9
2014-Oct-21 12:33S 33°04' E 152°23'1717.0
2014-Oct-21 11:33S 32°54' E 152°39'1615.9
2014-Oct-21 10:33S 32°43' E 152°53'  
Track history (hours):
 
Tides and Currents Weather Stations Pressure Air Temp Water Temp Dewpoint Dewpoint Depression Visibility Wind Speed Wind Dir Waves Ship Positions

Celebrity Century

Last reported at 2014-Oct-30 15:33 UTC. Time now 2014-Oct-30 15:52 UTC.
Position S 32°33' E 153°07'.

Length 252 m; draft 8 m.

Type: Ship. MMSI: 249054000.

Date/timePositionNaut miles runAvg speedWind from/ knotsBaromVisibWave heightAir tempDewpointWater temp
2014-Oct-30 15:33S 32°33' E 153°07'1817.6
2014-Oct-30 14:33S 32°44' E 152°51'1817.6
2014-Oct-30 13:33S 32°56' E 152°35'1717.3
2014-Oct-30 12:33S 33°07' E 152°20'1716.6
2014-Oct-30 11:33S 33°18' E 152°05'1616.2
2014-Oct-30 10:33S 33°29' E 151°50'1615.9
2014-Oct-30 09:33S 33°39' E 151°36'1616.2
2014-Oct-30 08:34S 33°50' E 151°21'7 6.9
2014-Oct-30 07:32S 33°52' E 151°13'194 7.4
2014-Oct-29 05:23S 37°02' E 150°29'1518.2
2014-Oct-29 04:33S 37°17' E 150°23'1817.9
2014-Oct-29 03:32S 37°35' E 150°16'1717.6
2014-Oct-29 02:33S 37°48' E 150°03'1918.4
2014-Oct-29 01:32S 37°59' E 149°43'3517.7
2014-Oct-28 23:33S 38°20' E 149°08'1818.5
2014-Oct-28 22:33S 38°30' E 148°49'7919.7
2014-Oct-28 18:33S 39°03' E 147°16'2019.6
2014-Oct-28 17:33S 39°10' E 146°53'1919.2
2014-Oct-28 16:34S 39°16' E 146°30'1919.0
2014-Oct-28 15:34S 39°17' E 146°05'1919.0
2014-Oct-28 14:33S 39°15' E 145°41'14818.4
2014-Oct-28 06:33S 38°54' E 142°32'1818.5
2014-Oct-28 05:33S 38°48' E 142°10'1818.6
2014-Oct-28 04:33S 38°43' E 141°47'280 6.8
2014-Oct-26 11:34S 35°20' E 137°46'1414.5
2014-Oct-26 10:34S 35°12' E 138°01'1414.3
2014-Oct-26 09:34S 35°00' E 138°10'1614.6
2014-Oct-26 08:27S 34°48' E 138°22'6 4.3
2014-Oct-26 07:10S 34°47' E 138°29'0 0.0
2014-Oct-26 06:31S 34°47' E 138°29'0 0.0
2014-Oct-26 05:34S 34°47' E 138°29'0 0.0
2014-Oct-26 03:10S 34°47' E 138°29'0 0.0
2014-Oct-26 02:31S 34°47' E 138°29'0 0.0
2014-Oct-26 00:34S 34°47' E 138°29'0 0.0
2014-Oct-25 23:31S 34°47' E 138°29'0 0.0
2014-Oct-25 22:16S 34°47' E 138°29'0 0.0
2014-Oct-25 21:31S 34°47' E 138°29'31 7.8
2014-Oct-25 17:33S 35°13' E 138°08'7211.9
2014-Oct-25 11:32S 36°19' E 138°42'20613.7
2014-Oct-24 20:31S 38°37' E 141°54'1414.8
2014-Oct-24 19:33S 38°42' E 142°12'1514.8
2014-Oct-24 18:32S 38°46' E 142°30'1814.6
2014-Oct-24 17:19S 38°50' E 142°52'134 4.6
2014-Oct-23 12:20S 39°04' E 145°44'1215.2
2014-Oct-23 11:33S 39°09' E 145°57'1515.0
2014-Oct-23 10:32S 39°11' E 146°17'1717.5
2014-Oct-23 09:33S 39°07' E 146°38'1717.3
2014-Oct-23 08:33S 39°01' E 146°59'1717.0
2014-Oct-23 07:33S 38°56' E 147°20'8716.7
2014-Oct-23 02:21S 38°18' E 149°00'3117.0
2014-Oct-23 00:30S 38°02' E 149°34'1717.3
2014-Oct-22 23:31S 37°52' E 149°52'1717.2
2014-Oct-22 22:33S 37°44' E 150°11'1615.6
2014-Oct-22 21:33S 37°30' E 150°20'1717.1
2014-Oct-22 20:33S 37°14' E 150°26'206 9.7
2014-Oct-21 23:14S 33°52' E 151°13'0 0.0
2014-Oct-21 22:32S 33°52' E 151°13'64 6.9
2014-Oct-21 13:18S 33°11' E 152°12'1215.9
2014-Oct-21 12:33S 33°04' E 152°23'1717.0
2014-Oct-21 11:33S 32°54' E 152°39'1615.9
2014-Oct-21 10:33S 32°43' E 152°53'  

Dump ship's entire track history